[[{"header":{"parameterUnit":"m.s-1","parameterCategory":1,"la1":30.2991,"la2":30.254,"lo1":-89.0895,"lo2":-89.0444,"dy":0.0017,"dx":0.0017,"nx":28,"ny":28,"refTime":"2026-01-05T09:00:00:Z","depth":0,"parameterNumber":2,"parameterNumberName":"U-component_of_WINDS"},"data":[0,0,0,0,0,0,0,0,0,0,0,0,0,0,0,0,0,0,0,0,0,0,0,0,0,0,0,0,0,0,0,0,0,0,0,0,0,0,0,0,0,0,0,0,0,0,0,0,0,0,0,0,0,0,0,0,0,0,0.4662,0.4662,0,0.4677,0.4678,0.4678,0.4701,0.4702,0.4702,0.4703,0.4721,0.4721,0.4721,0,0,0,0,0,0,0,0,0,0,0,0,0,0.4655,0.4655,0.4662,0.4662,0.4662,0.4677,0.4678,0.4678,0.4701,0.4702,0.4702,0.4703,0.4721,0.4721,0.4721,0,0,0,0,0,0,0,0,0,0,0,0,0,0.4663,0.4655,0.4662,0.4675,0.4677,0.4677,0.4678,0.4678,0.4701,0.4702,0.4702,0.4703,0.4721,0.4721,0.4721,0.471,0,0,0.4722,0.4722,0,0,0,0,0,0,0,0,0.4663,0.4664,0.4673,0.4675,0.4676,0.4688,0.4682,0.4689,0.4701,0.4692,0.4703,0.4703,0.471,0.4711,0.4712,0.4711,0.4711,0.4722,0.4722,0.4722,0.4722,0,0,0,0,0,0,0,0.4662,0.4663,0.4668,0.4673,0.4675,0.4682,0.4684,0.4684,0.4697,0.4693,0.4695,0.4696,0.471,0.4712,0.4713,0.4712,0.4722,0.4722,0.4722,0.4722,0.4705,0.4704,0,0,0,0,0,0,0.4659,0.4662,0.4667,0.4668,0.4671,0.4682,0.4684,0.4684,0.4697,0.47,0.4696,0.4697,0.4712,0.4713,0.4714,0.4703,0.4722,0.4722,0.4722,0.4705,0.4705,0.4704,0,0,0,0,0,0,0.4659,0.4659,0.4667,0.4666,0.4667,0.4681,0.4681,0.4684,0.4685,0.4699,0.4702,0.4694,0.4712,0.4713,0.4711,0.4704,0.4722,0.4722,0.4706,0.4705,0.4704,0.4681,0,0,0,0,0,0,0.4659,0.4659,0.4654,0.4666,0.4667,0.4663,0.468,0.4683,0.4685,0.4687,0.4699,0.4702,0.4713,0.4711,0.4711,0.4705,0.4722,0.4707,0.4706,0.4705,0.4682,0.4679,0.4677,0,0,0,0,0,0.4658,0.4647,0.4654,0.4654,0.4661,0.4662,0.4663,0.4676,0.4684,0.468,0.469,0.4701,0.4705,0.471,0.4711,0.4704,0.4707,0.4706,0.4705,0.4683,0.468,0.4677,0,0,0,0,0,0,0.4634,0.4648,0.4656,0.4647,0.4653,0.4666,0.4661,0.4671,0.4675,0.4677,0.4693,0.4695,0.4692,0.4698,0.4704,0.4696,0.4708,0.4707,0.4691,0.4688,0.4685,0.4684,0.4722,0,0,0,0,0,0.4627,0.4626,0.4639,0.463,0.4633,0.4646,0.4647,0.4657,0.4664,0.4666,0.4676,0.4683,0.4686,0.4687,0.4691,0.4683,0.4688,0.468,0.4677,0.4674,0.4673,0.4672,0.4669,0.47,0.47,0.47,0,0,0.4614,0.4622,0.462,0.4626,0.4631,0.4631,0.4648,0.4647,0.4647,0.4666,0.4665,0.4672,0.4682,0.4677,0.4676,0.4682,0.4666,0.4673,0.4671,0.4671,0.4671,0.4668,0.4665,0.4699,0.4699,0.4699,0,0,0.4589,0.4594,0.4589,0.4594,0.4603,0.4612,0.4611,0.4623,0.4628,0.4627,0.4642,0.4644,0.4648,0.4655,0.4659,0.464,0.4651,0.4641,0.4626,0.4625,0.4622,0.462,0.4615,0.4613,0.4639,0.4639,0.4639,0,0.4572,0.4571,0.4584,0.4582,0.4586,0.4603,0.4599,0.4604,0.4613,0.4615,0.4623,0.463,0.4637,0.4636,0.4632,0.4634,0.4634,0.4639,0.4621,0.462,0.4618,0.4613,0.4611,0.4638,0.4638,0.4638,0.4638,0,0.455,0.4549,0.4544,0.4552,0.4555,0.4551,0.4566,0.4567,0.4577,0.4587,0.4587,0.4596,0.4603,0.4604,0.4613,0.4604,0.4608,0.4618,0.4631,0.4614,0.4609,0.4608,0.4636,0.4637,0.4637,0.4637,0,0,0.4508,0.4526,0.4524,0.4529,0.4541,0.4542,0.4541,0.4547,0.4549,0.4555,0.4556,0.456,0.457,0.4575,0.4585,0.4584,0.4571,0.4595,0.4595,0.4591,0.4565,0.4558,0.4555,0.4579,0.4579,0.4578,0.4564,0,0.4487,0.4484,0.4498,0.4492,0.4493,0.4512,0.4511,0.4519,0.4528,0.4532,0.4543,0.4546,0.4558,0.4561,0.4561,0.4573,0.4566,0.4574,0.4581,0.4581,0.4578,0.4553,0.4544,0.453,0.4563,0.4562,0.4562,0,0.4461,0.4466,0.4461,0.4476,0.4477,0.4475,0.4484,0.4486,0.4497,0.4504,0.451,0.4523,0.4525,0.4537,0.4541,0.4546,0.455,0.4556,0.4556,0.4558,0.4571,0.4554,0.4526,0.4524,0.456,0.456,0.456,0,0.4433,0.4439,0.4437,0.4441,0.4457,0.4457,0.4464,0.4475,0.4479,0.4487,0.449,0.4498,0.4502,0.4509,0.4525,0.4532,0.4528,0.454,0.4535,0.4535,0.4533,0.4533,0.4506,0.4535,0.4535,0.4535,0.4535,0,0.4408,0.4404,0.4425,0.4424,0.4422,0.4438,0.4435,0.4444,0.4455,0.4457,0.4474,0.4476,0.4496,0.4501,0.4513,0.4516,0.4518,0.4525,0.4528,0.4523,0.4523,0.4526,0.4528,0.4534,0.4534,0.4534,0.4534,0,0.4375,0.4389,0.4389,0.4405,0.4409,0.4407,0.4421,0.4422,0.4433,0.4436,0.4438,0.4456,0.4463,0.4479,0.449,0.4499,0.4499,0.4504,0.4495,0.4497,0.4491,0.4492,0.4466,0.4464,0.4493,0.4493,0.4492,0,0.4358,0.4356,0.4373,0.4375,0.4381,0.4385,0.439,0.4407,0.4411,0.4424,0.4424,0.4432,0.444,0.4451,0.4466,0.4475,0.4482,0.4473,0.4484,0.448,0.4483,0.4484,0.4484,0.447,0.4469,0.4469,0.4469,0,0.4327,0.4335,0.434,0.4348,0.4353,0.436,0.4369,0.437,0.439,0.4394,0.4401,0.4407,0.442,0.4429,0.4441,0.445,0.4464,0.4465,0.4465,0.446,0.4455,0.4459,0.4489,0.4466,0.4466,0.4466,0.4467,0.4467,0.4303,0.4303,0.4315,0.4321,0.4329,0.4337,0.4339,0.4351,0.4357,0.4368,0.4378,0.4385,0.4399,0.4417,0.4425,0.4432,0.4439,0.4438,0.4437,0.4437,0.4436,0.4454,0.4435,0.4435,0.4435,0.4435,0.4435,0,0.4274,0.4283,0.4288,0.43,0.4305,0.4317,0.4328,0.4332,0.4337,0.4348,0.4356,0.4366,0.4375,0.4392,0.4403,0.4406,0.4412,0.4408,0.4408,0.4411,0.4429,0.4428,0.4403,0.4403,0.4403,0.4403,0.4403,0.4403,0.4259,0.426,0.4269,0.4275,0.4285,0.4291,0.4297,0.4305,0.4314,0.4324,0.4332,0.4343,0.4357,0.437,0.438,0.4385,0.4389,0.4383,0.439,0.4406,0.4409,0.4412,0.4412,0.4383,0.4383,0.4371,0.4371,0.4371]},{"header":{"parameterUnit":"m.s-1","parameterCategory":1,"la1":30.2991,"la2":30.254,"lo1":-89.0895,"lo2":-89.0444,"dy":0.0017,"dx":0.0017,"nx":28,"ny":28,"refTime":"2026-01-05T09:00:00:Z","depth":0,"parameterNumber":3,"parameterNumberName":"V-component_of_WINDS"},"data":[0,0,0,0,0,0,0,0,0,0,0,0,0,0,0,0,0,0,0,0,0,0,0,0,0,0,0,0,0,0,0,0,0,0,0,0,0,0,0,0,0,0,0,0,0,0,0,0,0,0,0,0,0,0,0,0,0,0,2.1724,2.1724,0,2.1726,2.1726,2.1726,2.1747,2.1748,2.1749,2.1749,2.1747,2.1746,2.1745,0,0,0,0,0,0,0,0,0,0,0,0,0,2.1739,2.1739,2.1724,2.1724,2.1724,2.1726,2.1726,2.1726,2.1747,2.1748,2.1749,2.1749,2.1747,2.1746,2.1745,0,0,0,0,0,0,0,0,0,0,0,0,0,2.1736,2.1739,2.1724,2.1735,2.1736,2.1726,2.1726,2.1726,2.1747,2.1748,2.1749,2.175,2.1747,2.1746,2.1745,2.1723,0,0,2.1743,2.1742,0,0,0,0,0,0,0,0,2.1736,2.1735,2.1734,2.1734,2.1736,2.1737,2.173,2.1725,2.1747,2.1743,2.1749,2.175,2.1743,2.1742,2.174,2.1723,2.1723,2.1743,2.1742,2.1742,2.1741,0,0,0,0,0,0,0,2.1736,2.1735,2.1725,2.1733,2.1735,2.174,2.1741,2.1729,2.1738,2.1743,2.1745,2.1745,2.1743,2.1741,2.1741,2.1723,2.1743,2.1742,2.1741,2.1741,2.1692,2.1691,0,0,0,0,0,0,2.1735,2.1735,2.1725,2.1725,2.1738,2.1739,2.174,2.1736,2.1738,2.1739,2.1744,2.1746,2.1742,2.1742,2.174,2.1718,2.1742,2.1741,2.174,2.1693,2.1692,2.1691,0,0,0,0,0,0,2.1736,2.1734,2.1724,2.1731,2.173,2.1738,2.1734,2.1735,2.1733,2.1739,2.174,2.1741,2.1743,2.1742,2.1729,2.1718,2.174,2.174,2.1694,2.1692,2.1691,2.1669,0,0,0,0,0,0,2.1736,2.1734,2.1725,2.173,2.1729,2.1712,2.1733,2.1735,2.1732,2.1735,2.1736,2.1737,2.1744,2.173,2.1728,2.1717,2.1739,2.1695,2.1693,2.1692,2.1671,2.1668,2.1665,0,0,0,0,0,2.1736,2.1717,2.1725,2.1723,2.1719,2.1712,2.1711,2.172,2.1731,2.1723,2.1728,2.1737,2.1719,2.1728,2.1726,2.1715,2.1695,2.1694,2.1692,2.1673,2.1668,2.1665,0,0,0,0,0,0,2.1708,2.1718,2.1726,2.1708,2.1709,2.1715,2.1705,2.1715,2.1712,2.1714,2.1724,2.1724,2.171,2.1711,2.1721,2.1696,2.1709,2.1707,2.1695,2.1691,2.1688,2.1688,2.1738,0,0,0,0,0,2.17,2.1694,2.1703,2.1686,2.1686,2.1696,2.1693,2.1701,2.1701,2.1701,2.1705,2.1704,2.17,2.1695,2.1691,2.1672,2.1674,2.1663,2.166,2.1658,2.1655,2.1649,2.1645,2.1685,2.1685,2.1685,0,0,2.1682,2.1687,2.1682,2.1681,2.1682,2.1676,2.1696,2.1687,2.1683,2.17,2.1689,2.1691,2.1692,2.1677,2.1671,2.1677,2.1645,2.1655,2.1653,2.1652,2.1647,2.1643,2.164,2.1684,2.1684,2.1685,0,0,2.1648,2.165,2.1639,2.1641,2.1645,2.1652,2.165,2.1655,2.1659,2.1648,2.1662,2.1657,2.1647,2.1648,2.1648,2.162,2.1629,2.1618,2.1601,2.1594,2.1591,2.1588,2.158,2.1577,2.1616,2.1616,2.1616,0,2.1625,2.1617,2.163,2.1623,2.1623,2.1641,2.163,2.1631,2.1633,2.1632,2.1641,2.1632,2.1634,2.1621,2.1615,2.1613,2.1611,2.1617,2.1591,2.1588,2.1586,2.1578,2.1575,2.1614,2.1615,2.1615,2.1615,0,2.1591,2.1585,2.1575,2.158,2.1579,2.1569,2.1582,2.1579,2.1588,2.1595,2.1586,2.1589,2.1588,2.1585,2.1592,2.1575,2.1579,2.1589,2.1603,2.1581,2.1574,2.1571,2.1613,2.1613,2.1613,2.1614,0,0,2.1534,2.155,2.1546,2.155,2.1558,2.1554,2.1547,2.1548,2.1547,2.1548,2.1543,2.1537,2.1548,2.1547,2.1555,2.155,2.1531,2.1561,2.1561,2.1556,2.1515,2.1508,2.1504,2.1538,2.1538,2.1537,2.1515,0,2.1503,2.1492,2.1506,2.1493,2.149,2.1509,2.1503,2.1508,2.1515,2.1514,2.1521,2.1518,2.1531,2.1532,2.1527,2.1534,2.1523,2.1536,2.1534,2.1534,2.1533,2.15,2.1492,2.1471,2.1513,2.1512,2.1512,0,2.1463,2.1467,2.1454,2.1467,2.1466,2.146,2.1465,2.1463,2.1469,2.1475,2.1478,2.1489,2.1484,2.1499,2.1493,2.1502,2.1502,2.1506,2.1506,2.1505,2.1521,2.15,2.1464,2.1461,2.1507,2.1508,2.1508,0,2.1426,2.1427,2.1421,2.1423,2.1437,2.1434,2.144,2.1448,2.1449,2.1452,2.1453,2.1455,2.1457,2.1458,2.1471,2.148,2.1464,2.1479,2.147,2.147,2.1464,2.1465,2.1429,2.1464,2.1464,2.1464,2.1464,0,2.1389,2.1381,2.1405,2.14,2.1393,2.141,2.1402,2.1409,2.1417,2.1416,2.1432,2.143,2.1447,2.1447,2.1456,2.1452,2.1451,2.1457,2.1459,2.1455,2.1455,2.1455,2.1457,2.1463,2.1464,2.1464,2.1464,0,2.1346,2.1361,2.1356,2.1372,2.1376,2.1369,2.1383,2.1381,2.1391,2.1389,2.1389,2.1405,2.1407,2.142,2.1423,2.143,2.1422,2.1427,2.142,2.1422,2.1413,2.1414,2.1376,2.1373,2.1409,2.1409,2.1409,0,2.1321,2.1316,2.1333,2.1334,2.134,2.1341,2.1344,2.1362,2.1363,2.1374,2.137,2.1374,2.1378,2.138,2.1391,2.1395,2.1401,2.1387,2.1401,2.1399,2.1402,2.1403,2.1403,2.1384,2.1383,2.1383,2.1383,0,2.1277,2.1286,2.1289,2.1297,2.13,2.1306,2.1313,2.1313,2.1334,2.1335,2.1339,2.1342,2.1348,2.1352,2.1359,2.1365,2.1378,2.1379,2.1377,2.1373,2.137,2.1373,2.1413,2.1379,2.138,2.138,2.138,2.138,2.1243,2.124,2.1254,2.1258,2.1266,2.1274,2.1274,2.1286,2.1289,2.1297,2.1308,2.131,2.1321,2.1332,2.1338,2.1341,2.1347,2.1344,2.1344,2.1343,2.1342,2.137,2.1341,2.1342,2.1342,2.1342,2.1342,0,2.1201,2.1211,2.1216,2.1227,2.1231,2.1246,2.1256,2.1258,2.1261,2.1271,2.1276,2.1281,2.1287,2.1301,2.1307,2.1307,2.1313,2.1308,2.1308,2.131,2.1334,2.1336,2.1303,2.1303,2.1303,2.1303,2.1303,2.1303,2.1179,2.1177,2.1189,2.1192,2.1203,2.1207,2.1212,2.122,2.1228,2.1235,2.124,2.125,2.1262,2.1271,2.1277,2.1281,2.1283,2.1277,2.1283,2.1304,2.1308,2.1311,2.1313,2.1277,2.1277,2.1259,2.1259,2.1259]}]]